{"data":{"norad_id":65230,"epoch":"2026-05-25T03:34:11.364096Z","epoch_age_seconds":62469,"freshness":"FRESH","line1":"1 65230U 25178C   26145.14874264  .00000068  00000+0  12458-3 0  9999","line2":"2 65230  86.4961  21.1727 0001656  88.4274 271.7049 13.24412561 37260","mean_motion":13.24412561,"eccentricity":0.0001656,"inclination_deg":86.4961,"raan_deg":21.1727,"arg_perigee_deg":88.4274,"mean_anomaly_deg":271.7049,"bstar":0.00012458,"rev_number":3726,"period_min":108.72744961832,"perigee_km":1166.6628320199,"apogee_km":1169.1620836003,"semimajor_km":7546.0494578101,"source":"CELESTRAK","updated_at":"2026-05-25T13:38:05.253066Z"}}